[[{"header":{"parameterUnit":"m.s-1","parameterCategory":1,"la1":30.2991,"la2":30.254,"lo1":-89.0895,"lo2":-89.0444,"dy":0.0017,"dx":0.0017,"nx":28,"ny":28,"refTime":"2024-10-15T21:00:00:Z","depth":0,"parameterNumber":2,"parameterNumberName":"U-component_of_WINDS"},"data":[0,0,0,0,0,0,0,0,0,0,0,0,0,0,0,0,0,0,0,0,0,0,0,0,0,0,0,0,0,0,0,0,0,0,0,0,0,0,0,0,0,0,0,0,0,0,0,0,0,0,0,0,0,0,0,0,0,0,-3.2326,-3.2326,0,-3.2341,-3.2342,-3.2342,-3.228,-3.2278,-3.2276,-3.2274,-3.2289,-3.2291,-3.2293,0,0,0,0,0,0,0,0,0,0,0,0,0,-3.2243,-3.2245,-3.2326,-3.2326,-3.2327,-3.2341,-3.2342,-3.2342,-3.228,-3.2278,-3.2276,-3.2273,-3.2288,-3.2291,-3.2293,0,0,0,0,0,0,0,0,0,0,0,0,0,-3.2271,-3.2245,-3.2326,-3.2298,-3.2295,-3.2341,-3.2342,-3.2342,-3.228,-3.2278,-3.2275,-3.2272,-3.2288,-3.2291,-3.2294,-3.2368,0,0,-3.2303,-3.2305,0,0,0,0,0,0,0,0,-3.2269,-3.2274,-3.2302,-3.23,-3.2297,-3.2306,-3.2318,-3.2351,-3.2281,-3.2286,-3.2274,-3.2271,-3.2297,-3.2299,-3.2308,-3.2369,-3.2369,-3.2304,-3.2306,-3.2307,-3.2308,0,0,0,0,0,0,0,-3.2267,-3.2273,-3.2332,-3.2302,-3.2299,-3.2284,-3.2285,-3.2324,-3.2307,-3.2285,-3.2281,-3.2284,-3.2295,-3.2305,-3.2308,-3.237,-3.2304,-3.2306,-3.2308,-3.231,-3.2492,-3.2495,0,0,0,0,0,0,-3.2269,-3.2272,-3.2332,-3.2333,-3.2276,-3.2287,-3.2288,-3.2306,-3.2306,-3.2303,-3.2286,-3.2281,-3.2301,-3.2304,-3.2308,-3.2395,-3.2307,-3.231,-3.2312,-3.2489,-3.2493,-3.2496,0,0,0,0,0,0,-3.2268,-3.2275,-3.2331,-3.2301,-3.2307,-3.2292,-3.2312,-3.2308,-3.2317,-3.2306,-3.2303,-3.2299,-3.2299,-3.2304,-3.2354,-3.2395,-3.2311,-3.2314,-3.2486,-3.249,-3.2495,-3.2571,0,0,0,0,0,0,-3.2266,-3.2275,-3.2303,-3.2302,-3.2309,-3.2377,-3.2314,-3.231,-3.2323,-3.2316,-3.2318,-3.2316,-3.2297,-3.2349,-3.2357,-3.2398,-3.2317,-3.2482,-3.2488,-3.2493,-3.2565,-3.2577,-3.2588,0,0,0,0,0,-3.2263,-3.2324,-3.2305,-3.2313,-3.2344,-3.2379,-3.2383,-3.2361,-3.2327,-3.2355,-3.2348,-3.2316,-3.2389,-3.2355,-3.2363,-3.2406,-3.2479,-3.2486,-3.2493,-3.2559,-3.2575,-3.2588,0,0,0,0,0,0,-3.233,-3.2323,-3.2302,-3.2365,-3.2373,-3.2369,-3.2404,-3.2378,-3.2396,-3.2389,-3.236,-3.2361,-3.2416,-3.2416,-3.2378,-3.2478,-3.2428,-3.2437,-3.2476,-3.2491,-3.2503,-3.2502,-3.2319,0,0,0,0,0,-3.2352,-3.2382,-3.2374,-3.243,-3.2436,-3.2419,-3.2434,-3.2416,-3.2423,-3.2427,-3.2423,-3.2431,-3.2456,-3.2473,-3.2496,-3.2564,-3.2563,-3.2597,-3.2609,-3.2619,-3.2627,-3.2663,-3.2678,-3.2518,-3.2518,-3.2518,0,0,-3.2398,-3.2398,-3.2419,-3.2444,-3.2448,-3.248,-3.2423,-3.2458,-3.2481,-3.2432,-3.2479,-3.2477,-3.2484,-3.2544,-3.257,-3.2545,-3.2671,-3.2627,-3.2635,-3.2638,-3.2672,-3.2687,-3.27,-3.2523,-3.2522,-3.2521,0,0,-3.2499,-3.2501,-3.2549,-3.2554,-3.2562,-3.255,-3.2562,-3.2562,-3.2558,-3.2605,-3.2569,-3.2596,-3.2639,-3.2646,-3.2655,-3.2758,-3.273,-3.2766,-3.2829,-3.2865,-3.2877,-3.2888,-3.2926,-3.2939,-3.2774,-3.2774,-3.2774,0,-3.2555,-3.2601,-3.2576,-3.2614,-3.2626,-3.2583,-3.2631,-3.2637,-3.2652,-3.2661,-3.2633,-3.2687,-3.2689,-3.275,-3.2775,-3.2784,-3.2796,-3.2766,-3.2877,-3.2888,-3.2898,-3.2933,-3.2947,-3.2779,-3.2778,-3.2778,-3.2777,0,-3.267,-3.2703,-3.274,-3.2756,-3.2772,-3.2814,-3.2796,-3.2815,-3.2796,-3.2787,-3.2836,-3.2836,-3.2858,-3.2871,-3.2853,-3.293,-3.2914,-3.2882,-3.2832,-3.2918,-3.2951,-3.2964,-3.2785,-3.2784,-3.2782,-3.2781,0,0,-3.2814,-3.2815,-3.2829,-3.2836,-3.2841,-3.2866,-3.2906,-3.2928,-3.2945,-3.2957,-3.299,-3.3028,-3.2999,-3.3009,-3.2991,-3.3022,-3.3104,-3.2986,-3.2986,-3.3009,-3.319,-3.3215,-3.3231,-3.3085,-3.3088,-3.3089,-3.319,0,-3.2912,-3.2983,-3.2961,-3.3032,-3.3062,-3.3021,-3.3057,-3.3064,-3.3057,-3.3081,-3.3073,-3.3101,-3.306,-3.3066,-3.3095,-3.3088,-3.3141,-3.3081,-3.3116,-3.3118,-3.3117,-3.3248,-3.3274,-3.3369,-3.3202,-3.3205,-3.3206,0,-3.3037,-3.3054,-3.3128,-3.3129,-3.314,-3.3173,-3.3191,-3.3215,-3.3222,-3.3215,-3.3227,-3.3202,-3.3241,-3.3191,-3.3246,-3.3205,-3.3219,-3.3217,-3.3221,-3.3224,-3.3168,-3.3255,-3.3398,-3.3413,-3.3226,-3.3224,-3.3223,0,-3.3136,-3.3177,-3.3226,-3.3233,-3.3235,-3.3259,-3.326,-3.3265,-3.3279,-3.3295,-3.3304,-3.3324,-3.3336,-3.3352,-3.3333,-3.3298,-3.3391,-3.3338,-3.3386,-3.3387,-3.3408,-3.3407,-3.3556,-3.3416,-3.3415,-3.3415,-3.3415,0,-3.3249,-3.3296,-3.327,-3.3301,-3.3353,-3.3327,-3.3379,-3.3376,-3.338,-3.3409,-3.3375,-3.3403,-3.3376,-3.3402,-3.3387,-3.3435,-3.344,-3.3435,-3.3431,-3.3439,-3.344,-3.3448,-3.3441,-3.3419,-3.3418,-3.3417,-3.3417,0,-3.3367,-3.3352,-3.3404,-3.3401,-3.3402,-3.344,-3.3438,-3.3466,-3.3456,-3.3494,-3.3501,-3.3487,-3.3515,-3.3498,-3.3526,-3.3516,-3.3579,-3.3565,-3.3577,-3.3574,-3.3623,-3.3619,-3.3783,-3.3803,-3.3649,-3.365,-3.3651,0,-3.3441,-3.3476,-3.3478,-3.3495,-3.3499,-3.3528,-3.3542,-3.3519,-3.3535,-3.3546,-3.3573,-3.3599,-3.3618,-3.3665,-3.3657,-3.3679,-3.3666,-3.3722,-3.3669,-3.3676,-3.3668,-3.3666,-3.367,-3.3733,-3.3735,-3.3736,-3.3737,0,-3.3574,-3.3565,-3.3587,-3.3608,-3.3627,-3.3642,-3.3654,-3.367,-3.3646,-3.3667,-3.3696,-3.3711,-3.374,-3.3766,-3.3784,-3.3786,-3.3758,-3.3754,-3.3766,-3.3775,-3.3781,-3.3779,-3.3607,-3.375,-3.3749,-3.3748,-3.3747,-3.3747,-3.3672,-3.3702,-3.3708,-3.3735,-3.3741,-3.3754,-3.378,-3.3774,-3.3798,-3.3821,-3.3805,-3.3839,-3.3845,-3.3867,-3.3872,-3.3898,-3.3876,-3.3893,-3.3898,-3.3903,-3.391,-3.3776,-3.3902,-3.3901,-3.3901,-3.39,-3.39,0,-3.3804,-3.3806,-3.3831,-3.3849,-3.387,-3.3842,-3.3854,-3.3873,-3.3904,-3.3912,-3.3932,-3.3965,-3.399,-3.3984,-3.4006,-3.4029,-3.4017,-3.4036,-3.4034,-3.4035,-3.3929,-3.3916,-3.4045,-3.4045,-3.4045,-3.4045,-3.4045,-3.4045,-3.3875,-3.3924,-3.3916,-3.3968,-3.3969,-3.4003,-3.4012,-3.4023,-3.4029,-3.4068,-3.4089,-3.4085,-3.4087,-3.4109,-3.4131,-3.4128,-3.4139,-3.4163,-3.4156,-3.4057,-3.4042,-3.4029,-3.4017,-3.4165,-3.4165,-3.426,-3.426,-3.4261]},{"header":{"parameterUnit":"m.s-1","parameterCategory":1,"la1":30.2991,"la2":30.254,"lo1":-89.0895,"lo2":-89.0444,"dy":0.0017,"dx":0.0017,"nx":28,"ny":28,"refTime":"2024-10-15T21:00:00:Z","depth":0,"parameterNumber":3,"parameterNumberName":"V-component_of_WINDS"},"data":[0,0,0,0,0,0,0,0,0,0,0,0,0,0,0,0,0,0,0,0,0,0,0,0,0,0,0,0,0,0,0,0,0,0,0,0,0,0,0,0,0,0,0,0,0,0,0,0,0,0,0,0,0,0,0,0,0,0,-6.4921,-6.4922,0,-6.4982,-6.4982,-6.4983,-6.4944,-6.4942,-6.494,-6.4939,-6.4996,-6.4999,-6.5002,0,0,0,0,0,0,0,0,0,0,0,0,0,-6.4766,-6.4769,-6.4921,-6.4922,-6.4922,-6.4982,-6.4982,-6.4983,-6.4944,-6.4942,-6.494,-6.4938,-6.4995,-6.4998,-6.5002,0,0,0,0,0,0,0,0,0,0,0,0,0,-6.4831,-6.477,-6.4921,-6.491,-6.491,-6.4981,-6.4982,-6.4983,-6.4945,-6.4942,-6.4939,-6.4937,-6.4993,-6.4998,-6.5003,-6.5086,0,0,-6.5017,-6.5019,0,0,0,0,0,0,0,0,-6.4827,-6.4836,-6.4911,-6.4911,-6.4911,-6.4953,-6.4949,-6.5018,-6.4945,-6.4931,-6.4939,-6.4935,-6.4983,-6.4989,-6.5006,-6.5089,-6.5091,-6.5018,-6.5021,-6.5023,-6.5024,0,0,0,0,0,0,0,-6.4823,-6.4834,-6.4945,-6.4912,-6.4912,-6.4901,-6.4907,-6.4962,-6.4971,-6.4932,-6.493,-6.4938,-6.4982,-6.5001,-6.5007,-6.5092,-6.5018,-6.5022,-6.5025,-6.5027,-6.5248,-6.525,0,0,0,0,0,0,-6.482,-6.483,-6.4943,-6.4946,-6.4862,-6.4906,-6.4913,-6.4942,-6.4971,-6.4973,-6.494,-6.4936,-6.4994,-6.5001,-6.5009,-6.5109,-6.5023,-6.5027,-6.503,-6.5245,-6.5248,-6.5252,0,0,0,0,0,0,-6.4817,-6.483,-6.494,-6.4888,-6.4901,-6.4911,-6.4944,-6.4944,-6.4963,-6.4977,-6.4978,-6.4958,-6.4993,-6.5002,-6.5068,-6.5111,-6.5029,-6.5034,-6.5241,-6.5246,-6.525,-6.5311,0,0,0,0,0,0,-6.4812,-6.4829,-6.4862,-6.4889,-6.4904,-6.5,-6.4947,-6.4948,-6.4972,-6.4967,-6.4993,-6.4995,-6.4991,-6.5061,-6.5073,-6.5116,-6.5037,-6.5237,-6.5243,-6.5248,-6.5305,-6.5317,-6.5327,0,0,0,0,0,-6.4807,-6.4876,-6.4864,-6.4878,-6.4946,-6.5003,-6.5011,-6.5007,-6.4976,-6.5008,-6.5017,-6.4994,-6.5104,-6.5068,-6.5081,-6.5126,-6.5235,-6.5242,-6.5248,-6.53,-6.5314,-6.5326,0,0,0,0,0,0,-6.4851,-6.4879,-6.4866,-6.4946,-6.4973,-6.4996,-6.5037,-6.5022,-6.5056,-6.505,-6.5041,-6.5047,-6.5117,-6.5127,-6.5087,-6.5209,-6.5164,-6.5174,-6.5199,-6.5213,-6.5224,-6.522,-6.5041,0,0,0,0,0,-6.4871,-6.4917,-6.4937,-6.5005,-6.502,-6.5026,-6.5051,-6.5045,-6.5072,-6.5082,-6.5095,-6.5121,-6.5161,-6.5187,-6.5225,-6.5306,-6.5311,-6.5343,-6.5354,-6.5363,-6.5372,-6.5416,-6.5431,-6.5274,-6.5274,-6.5273,0,0,-6.4911,-6.4931,-6.496,-6.5015,-6.5035,-6.5081,-6.5036,-6.5086,-6.512,-6.5089,-6.5153,-6.5164,-6.5191,-6.5266,-6.5299,-6.5277,-6.5416,-6.5372,-6.5379,-6.5383,-6.5424,-6.5439,-6.5453,-6.5278,-6.5277,-6.5277,0,0,-6.5007,-6.5028,-6.5087,-6.5109,-6.5141,-6.5145,-6.5159,-6.5185,-6.5192,-6.5256,-6.5234,-6.5273,-6.5343,-6.5363,-6.5383,-6.5489,-6.5469,-6.5501,-6.5558,-6.5602,-6.5614,-6.5625,-6.5663,-6.5677,-6.5509,-6.551,-6.551,0,-6.5053,-6.5124,-6.5119,-6.5173,-6.5197,-6.5173,-6.5233,-6.5253,-6.5295,-6.5311,-6.5287,-6.5374,-6.539,-6.547,-6.5496,-6.5512,-6.5528,-6.5498,-6.5613,-6.5624,-6.5634,-6.567,-6.5685,-6.5513,-6.5513,-6.5513,-6.5512,0,-6.5178,-6.5227,-6.5271,-6.5315,-6.5344,-6.54,-6.5403,-6.5433,-6.5425,-6.5431,-6.5497,-6.5516,-6.5558,-6.5576,-6.5568,-6.5654,-6.564,-6.5614,-6.5569,-6.5653,-6.5687,-6.5701,-6.5519,-6.5517,-6.5516,-6.5515,0,0,-6.5304,-6.5346,-6.5362,-6.5382,-6.5415,-6.5452,-6.5507,-6.555,-6.5576,-6.5605,-6.565,-6.571,-6.5687,-6.5709,-6.5703,-6.5741,-6.5825,-6.5711,-6.5711,-6.5732,-6.5922,-6.5942,-6.5958,-6.5812,-6.5815,-6.5817,-6.592,0,-6.5403,-6.5501,-6.5499,-6.559,-6.5635,-6.5613,-6.5661,-6.5686,-6.5693,-6.5732,-6.5739,-6.5782,-6.5748,-6.5762,-6.5798,-6.5807,-6.5863,-6.5799,-6.5853,-6.5855,-6.5848,-6.5976,-6.5996,-6.6093,-6.5933,-6.5935,-6.5937,0,-6.5532,-6.5569,-6.5664,-6.5693,-6.5711,-6.5755,-6.5794,-6.5831,-6.5859,-6.5862,-6.5888,-6.5876,-6.593,-6.5884,-6.5958,-6.5915,-6.5937,-6.5944,-6.5948,-6.5953,-6.5902,-6.5985,-6.6123,-6.6138,-6.5958,-6.5956,-6.5955,0,-6.5616,-6.5688,-6.5755,-6.5773,-6.5807,-6.5838,-6.5853,-6.5878,-6.5905,-6.5938,-6.5955,-6.5994,-6.6015,-6.6045,-6.6043,-6.601,-6.6119,-6.6072,-6.6122,-6.6123,-6.6147,-6.6145,-6.6291,-6.616,-6.616,-6.6159,-6.6159,0,-6.5727,-6.5787,-6.5794,-6.5835,-6.5901,-6.5897,-6.5962,-6.5974,-6.5997,-6.6039,-6.6021,-6.6061,-6.6056,-6.6096,-6.6094,-6.6157,-6.6166,-6.6169,-6.6168,-6.6171,-6.6171,-6.6186,-6.6179,-6.6163,-6.6162,-6.6162,-6.6161,0,-6.5832,-6.5839,-6.5911,-6.5938,-6.5946,-6.5994,-6.6016,-6.6054,-6.6061,-6.6114,-6.6127,-6.6136,-6.6182,-6.6183,-6.6235,-6.6234,-6.631,-6.6301,-6.6302,-6.63,-6.635,-6.6346,-6.6511,-6.6533,-6.6387,-6.6388,-6.6389,0,-6.5903,-6.5949,-6.5982,-6.601,-6.6028,-6.6073,-6.61,-6.6098,-6.6127,-6.6163,-6.6197,-6.6241,-6.6277,-6.6351,-6.6361,-6.6401,-6.6393,-6.6448,-6.6398,-6.6401,-6.6394,-6.6392,-6.6397,-6.6458,-6.646,-6.6461,-6.6462,0,-6.6029,-6.6031,-6.6072,-6.6115,-6.6148,-6.6181,-6.6212,-6.6235,-6.6237,-6.627,-6.6318,-6.6345,-6.6399,-6.6444,-6.6482,-6.6496,-6.648,-6.6478,-6.6491,-6.6495,-6.6494,-6.6496,-6.6329,-6.6474,-6.6473,-6.6472,-6.6471,-6.6471,-6.6119,-6.6159,-6.619,-6.6236,-6.6259,-6.6289,-6.6327,-6.6339,-6.6379,-6.6425,-6.642,-6.6474,-6.65,-6.655,-6.6568,-6.6608,-6.6589,-6.6609,-6.6614,-6.6619,-6.6625,-6.6487,-6.6615,-6.6615,-6.6614,-6.6614,-6.6614,0,-6.6245,-6.6264,-6.6307,-6.6351,-6.6388,-6.6371,-6.6404,-6.6435,-6.6483,-6.651,-6.6546,-6.6601,-6.6644,-6.6658,-6.67,-6.6729,-6.6723,-6.674,-6.6738,-6.6742,-6.6639,-6.6624,-6.6745,-6.6745,-6.6745,-6.6745,-6.6745,-6.6745,-6.6315,-6.6382,-6.6387,-6.6466,-6.6483,-6.6537,-6.6558,-6.6584,-6.6606,-6.6669,-6.6706,-6.6715,-6.6737,-6.678,-6.6819,-6.6822,-6.6838,-6.6859,-6.6859,-6.6762,-6.6749,-6.6737,-6.6722,-6.6862,-6.6862,-6.6958,-6.6959,-6.696]}]]